Location: Observatoire
(46.1952°N, 5.3391°E)
Time: 23:58:43
(UTC+01:00)

Courier 1B Rocket - Pass Details

Date: 21 February 2026
Orbit: 920 x 1201 km, 28.2° (Epoch: 11 March)

Event Time Altitude Azimuth Distance (km) Brightness Sun altitude
Rises 19:32:39 0° 228° (SW) 3,544 8.7 -14.4°
Reaches altitude 10° 19:36:36 10° 204° (SSW) 2,601 7.5 -15.1°
Maximum altitude 19:39:38 14° 174° (S) 2,332 6.9 -15.6°
Drops below altitude 10° 19:42:43 10° 145° (SE) 2,630 6.9 -16.2°
Enters shadow 19:43:08 - 141° (SE) 2,709 7.0 -16.2°
Sets 19:46:45 0° 121° (ESE) 3,612 - -16.9°
